Location: Vancouver
(49.2500°N, 123.1330°W)
Time: 10:57:16
(UTC-07:00)

A-11 Canister half - Visible Passes

Search period start: 20 October 2014 00:00
Search period end: 30 October 2014 00:00
Orbit: 1525 x 1685 km, 47.3° (Epoch: 18 October)

Date Brightness Start Highest point End Pass type
(mag) Time Alt. Az. Time Alt. Az. Time Alt. Az.
20 Oct 10.3 18:31:19 10° WNW 18:39:42 40° SW 18:48:11 10° SSE visible
20 Oct 11.3 20:39:38 10° WSW 20:42:35 12° WSW 20:45:34 10° SW visible
21 Oct 11.3 20:17:35 10° W 20:21:11 13° SW 20:24:48 10° SSW visible
22 Oct 11.3 19:55:40 10° W 19:59:46 14° SW 20:03:54 10° SSW visible
23 Oct 11.3 19:33:48 10° W 19:38:21 15° SW 19:42:56 10° SSW visible
24 Oct 11.3 19:12:00 10° W 19:16:56 16° SW 19:21:54 10° SSW visible
25 Oct 11.3 18:50:15 10° W 18:55:31 17° SW 19:00:50 10° SSW visible
26 Oct 11.4 18:28:31 10° W 18:34:06 18° SW 18:39:43 10° SSW visible
